Time,TemperatureF,DewpointF,PressureIn,WindDirection,WindDirectionDegrees,WindSpeedMPH,WindSpeedGustMPH,Humidity,HourlyPrecipIn,Conditions,Clouds,dailyrainin,SoftwareType,DateUTC
2015-03-06 00:02:00,57.4,37.4,30.20,NNE,25,0.0,0.0,47,0.00,,---,0.00,cosweather0.1e,2015-03-06 08:02:00,
2015-03-06 00:07:00,57.6,37.4,30.20,NNE,25,0.0,0.0,47,0.00,,---,0.00,cosweather0.1e,2015-03-06 08:07:00,
2015-03-06 00:12:00,57.6,37.4,30.20,NNE,25,0.0,0.0,47,0.00,,---,0.00,cosweather0.1e,2015-03-06 08:12:00,
2015-03-06 00:17:00,57.4,37.4,30.20,NNE,25,0.0,0.0,47,0.00,,---,0.00,cosweather0.1e,2015-03-06 08:17:00,
2015-03-06 00:22:00,57.2,37.4,30.20,NNE,23,0.0,0.0,47,0.00,,---,0.00,cosweather0.1e,2015-03-06 08:22:00,
2015-03-06 00:27:00,57.0,37.4,30.20,North,1,0.0,0.0,48,0.00,,---,0.00,cosweather0.1e,2015-03-06 08:27:00,
2015-03-06 00:32:00,56.8,37.4,30.20,North,1,0.0,0.0,48,0.00,,---,0.00,cosweather0.1e,2015-03-06 08:32:00,
2015-03-06 00:37:00,57.0,37.4,30.20,North,1,0.0,0.0,47,0.00,,---,0.00,cosweather0.1e,2015-03-06 08:37:00,
2015-03-06 00:42:00,56.8,37.4,30.20,North,1,0.0,0.0,47,0.00,,---,0.00,cosweather0.1e,2015-03-06 08:42:00,
2015-03-06 00:47:00,56.7,37.4,30.20,North,1,0.0,0.0,47,0.00,,---,0.00,cosweather0.1e,2015-03-06 08:47:00,
2015-03-06 00:52:00,56.5,37.4,30.20,North,1,0.0,0.0,47,0.00,,---,0.00,cosweather0.1e,2015-03-06 08:52:00,
2015-03-06 00:57:00,56.3,37.4,30.20,North,1,0.0,0.0,48,0.00,,---,0.00,cosweather0.1e,2015-03-06 08:57:00,
2015-03-06 01:02:00,56.3,37.4,30.20,North,1,0.0,0.0,48,0.00,,---,0.00,cosweather0.1e,2015-03-06 09:02:00,
2015-03-06 01:07:00,56.3,37.4,30.20,North,1,0.0,0.0,48,0.00,,---,0.00,cosweather0.1e,2015-03-06 09:07:00,
2015-03-06 01:12:00,56.3,37.4,30.20,North,1,0.0,0.0,48,0.00,,---,0.00,cosweather0.1e,2015-03-06 09:12:00,
2015-03-06 01:17:00,56.1,35.6,30.20,North,1,0.0,0.0,48,0.00,,---,0.00,cosweather0.1e,2015-03-06 09:17:00,
2015-03-06 01:22:00,55.9,35.6,30.20,North,1,0.0,0.0,48,0.00,,---,0.00,cosweather0.1e,2015-03-06 09:22:00,
2015-03-06 01:27:00,55.8,37.4,30.20,North,1,0.0,0.0,49,0.00,,---,0.00,cosweather0.1e,2015-03-06 09:27:00,
2015-03-06 01:32:00,55.6,37.4,30.20,North,1,0.0,0.0,49,0.00,,---,0.00,cosweather0.1e,2015-03-06 09:32:00,
2015-03-06 01:37:00,55.2,37.4,30.20,North,1,0.0,0.0,49,0.00,,---,0.00,cosweather0.1e,2015-03-06 09:37:00,
2015-03-06 01:42:00,55.0,37.4,30.20,North,1,0.0,0.0,50,0.00,,---,0.00,cosweather0.1e,2015-03-06 09:42:00,
2015-03-06 01:47:00,54.7,37.4,30.20,North,1,0.0,0.0,49,0.00,,---,0.00,cosweather0.1e,2015-03-06 09:47:00,
2015-03-06 01:52:00,54.7,37.4,30.20,North,1,0.0,0.0,50,0.00,,---,0.00,cosweather0.1e,2015-03-06 09:52:00,
2015-03-06 01:57:00,54.5,37.4,30.20,North,1,0.0,0.0,50,0.00,,---,0.00,cosweather0.1e,2015-03-06 09:57:00,
2015-03-06 02:02:00,54.3,35.6,30.20,North,1,0.0,0.0,50,0.00,,---,0.00,cosweather0.1e,2015-03-06 10:02:00,
2015-03-06 02:07:00,54.3,35.6,30.20,NNE,29,0.0,0.0,50,0.00,,---,0.00,cosweather0.1e,2015-03-06 10:07:00,
2015-03-06 02:13:00,54.3,35.6,30.20,NNE,29,0.0,0.0,50,0.00,,---,0.00,cosweather0.1e,2015-03-06 10:13:00,
2015-03-06 02:18:00,54.5,37.4,30.20,NE,43,0.0,0.0,50,0.00,,---,0.00,cosweather0.1e,2015-03-06 10:18:00,
2015-03-06 02:23:00,54.5,37.4,30.20,NE,44,0.0,0.0,50,0.00,,---,0.00,cosweather0.1e,2015-03-06 10:23:00,
2015-03-06 02:28:00,54.3,35.6,30.20,NE,44,0.0,0.0,49,0.00,,---,0.00,cosweather0.1e,2015-03-06 10:28:00,
2015-03-06 02:33:00,54.1,35.6,30.20,NE,44,0.0,0.0,50,0.00,,---,0.00,cosweather0.1e,2015-03-06 10:33:00,
2015-03-06 02:38:00,53.8,35.6,30.20,NE,44,0.0,0.0,50,0.00,,---,0.00,cosweather0.1e,2015-03-06 10:38:00,
2015-03-06 02:43:00,53.6,35.6,30.20,NE,44,0.0,0.0,50,0.00,,---,0.00,cosweather0.1e,2015-03-06 10:43:00,
2015-03-06 02:48:00,53.2,35.6,30.20,NNE,19,0.0,0.0,51,0.00,,---,0.00,cosweather0.1e,2015-03-06 10:48:00,
2015-03-06 02:53:00,53.1,35.6,30.20,North,7,0.0,0.0,51,0.00,,---,0.00,cosweather0.1e,2015-03-06 10:53:00,
2015-03-06 02:58:00,52.9,35.6,30.20,North,7,0.0,0.0,51,0.00,,---,0.00,cosweather0.1e,2015-03-06 10:58:00,
2015-03-06 03:03:00,52.7,35.6,30.20,North,8,0.0,0.0,51,0.00,,---,0.00,cosweather0.1e,2015-03-06 11:03:00,
2015-03-06 03:08:00,52.7,35.6,30.20,North,7,0.0,0.0,51,0.00,,---,0.00,cosweather0.1e,2015-03-06 11:08:00,
2015-03-06 03:13:00,52.9,37.4,30.20,North,7,0.0,0.0,52,0.00,,---,0.00,cosweather0.1e,2015-03-06 11:13:00,
2015-03-06 03:18:00,52.9,37.4,30.20,North,7,0.0,0.0,52,0.00,,---,0.00,cosweather0.1e,2015-03-06 11:18:00,
2015-03-06 03:23:00,52.9,37.4,30.20,North,7,0.0,0.0,52,0.00,,---,0.00,cosweather0.1e,2015-03-06 11:23:00,
2015-03-06 03:28:00,52.9,37.4,30.20,North,7,0.0,0.0,52,0.00,,---,0.00,cosweather0.1e,2015-03-06 11:28:00,
2015-03-06 03:33:00,53.1,37.4,30.20,North,7,0.0,0.0,52,0.00,,---,0.00,cosweather0.1e,2015-03-06 11:33:00,
2015-03-06 03:38:00,53.1,37.4,30.20,North,7,0.0,0.0,52,0.00,,---,0.00,cosweather0.1e,2015-03-06 11:38:00,
2015-03-06 03:43:00,53.1,37.4,30.20,North,7,0.0,0.0,52,0.00,,---,0.00,cosweather0.1e,2015-03-06 11:43:00,
2015-03-06 03:48:00,53.1,37.4,30.20,North,7,0.0,0.0,52,0.00,,---,0.00,cosweather0.1e,2015-03-06 11:48:00,
2015-03-06 03:53:00,52.9,37.4,30.20,North,7,0.0,0.0,52,0.00,,---,0.00,cosweather0.1e,2015-03-06 11:53:00,
2015-03-06 03:58:00,52.7,37.4,30.20,North,8,0.0,0.0,52,0.00,,---,0.00,cosweather0.1e,2015-03-06 11:58:00,
2015-03-06 04:03:00,52.5,35.6,30.20,North,7,0.0,0.0,52,0.00,,---,0.00,cosweather0.1e,2015-03-06 12:03:00,
2015-03-06 04:08:00,52.5,35.6,30.20,North,7,0.0,0.0,52,0.00,,---,0.00,cosweather0.1e,2015-03-06 12:08:00,
2015-03-06 04:13:00,52.3,35.6,30.20,North,7,0.0,0.0,52,0.00,,---,0.00,cosweather0.1e,2015-03-06 12:13:00,
2015-03-06 04:18:00,52.2,35.6,30.20,North,8,0.0,0.0,52,0.00,,---,0.00,cosweather0.1e,2015-03-06 12:18:00,
2015-03-06 04:23:00,52.2,35.6,30.20,North,7,0.0,0.0,53,0.00,,---,0.00,cosweather0.1e,2015-03-06 12:23:00,
2015-03-06 04:28:00,52.2,35.6,30.20,North,7,0.0,0.0,53,0.00,,---,0.00,cosweather0.1e,2015-03-06 12:28:00,
2015-03-06 04:33:00,52.2,35.6,30.20,North,7,0.0,0.0,53,0.00,,---,0.00,cosweather0.1e,2015-03-06 12:33:00,
2015-03-06 04:38:00,52.0,35.6,30.20,North,7,0.0,0.0,53,0.00,,---,0.00,cosweather0.1e,2015-03-06 12:38:00,
2015-03-06 04:43:00,51.8,35.6,30.20,North,8,0.0,0.0,53,0.00,,---,0.00,cosweather0.1e,2015-03-06 12:43:00,
2015-03-06 04:48:00,51.6,35.6,30.20,North,8,0.0,0.0,54,0.00,,---,0.00,cosweather0.1e,2015-03-06 12:48:00,
2015-03-06 04:53:00,51.4,35.6,30.20,North,8,0.0,0.0,54,0.00,,---,0.00,cosweather0.1e,2015-03-06 12:53:00,
2015-03-06 04:58:00,51.3,35.6,30.20,North,7,0.0,0.0,54,0.00,,---,0.00,cosweather0.1e,2015-03-06 12:58:00,
2015-03-06 05:03:00,51.3,35.6,30.20,North,8,0.0,0.0,54,0.00,,---,0.00,cosweather0.1e,2015-03-06 13:03:00,
2015-03-06 05:08:00,51.3,35.6,30.20,North,7,0.0,0.0,54,0.00,,---,0.00,cosweather0.1e,2015-03-06 13:08:00,
2015-03-06 05:13:00,51.4,35.6,30.20,North,8,0.0,0.0,54,0.00,,---,0.00,cosweather0.1e,2015-03-06 13:13:00,
2015-03-06 05:18:00,51.3,35.6,30.20,North,7,0.0,0.0,54,0.00,,---,0.00,cosweather0.1e,2015-03-06 13:18:00,
2015-03-06 05:23:00,51.1,35.6,30.20,North,7,0.0,0.0,54,0.00,,---,0.00,cosweather0.1e,2015-03-06 13:23:00,
2015-03-06 05:28:00,51.1,35.6,30.20,North,7,0.0,0.0,54,0.00,,---,0.00,cosweather0.1e,2015-03-06 13:28:00,
2015-03-06 05:33:00,51.1,35.6,30.20,North,8,0.0,0.0,54,0.00,,---,0.00,cosweather0.1e,2015-03-06 13:33:00,
2015-03-06 05:38:00,51.1,35.6,30.20,North,7,0.0,0.0,54,0.00,,---,0.00,cosweather0.1e,2015-03-06 13:38:00,
2015-03-06 05:43:00,50.9,35.6,30.20,North,7,0.0,0.0,55,0.00,,---,0.00,cosweather0.1e,2015-03-06 13:43:00,
2015-03-06 05:48:00,50.7,33.8,30.20,North,7,0.0,0.0,55,0.00,,---,0.00,cosweather0.1e,2015-03-06 13:48:00,
2015-03-06 05:53:00,50.7,33.8,30.20,North,8,0.0,0.0,55,0.00,,---,0.00,cosweather0.1e,2015-03-06 13:53:00,
2015-03-06 05:58:00,50.5,33.8,30.20,North,7,0.0,0.0,55,0.00,,---,0.00,cosweather0.1e,2015-03-06 13:58:00,
2015-03-06 06:03:00,50.4,33.8,30.20,North,7,0.0,0.0,55,0.00,,---,0.00,cosweather0.1e,2015-03-06 14:03:00,
2015-03-06 06:08:00,50.5,33.8,30.20,North,8,0.0,0.0,55,0.00,,---,0.00,cosweather0.1e,2015-03-06 14:08:00,
2015-03-06 06:13:00,50.4,33.8,30.20,North,7,0.0,0.0,55,0.00,,---,0.00,cosweather0.1e,2015-03-06 14:13:00,
2015-03-06 06:18:00,50.2,33.8,30.20,North,8,0.0,0.0,55,0.00,,---,0.00,cosweather0.1e,2015-03-06 14:18:00,
2015-03-06 06:23:00,50.2,35.6,30.20,North,7,0.0,0.0,56,0.00,,---,0.00,cosweather0.1e,2015-03-06 14:23:00,
2015-03-06 06:28:00,50.2,35.6,30.20,North,8,0.0,0.0,56,0.00,,---,0.00,cosweather0.1e,2015-03-06 14:28:00,
2015-03-06 06:33:00,50.0,35.6,30.20,North,8,0.0,0.0,56,0.00,,---,0.00,cosweather0.1e,2015-03-06 14:33:00,
2015-03-06 06:38:00,49.8,35.6,30.20,ENE,73,0.0,0.0,57,0.00,,---,0.00,cosweather0.1e,2015-03-06 14:38:00,
2015-03-06 06:43:00,49.8,35.6,30.20,ENE,73,0.0,0.0,57,0.00,,---,0.00,cosweather0.1e,2015-03-06 14:43:00,
2015-03-06 06:48:00,49.8,35.6,30.20,ENE,73,0.0,0.0,57,0.00,,---,0.00,cosweather0.1e,2015-03-06 14:48:00,
2015-03-06 06:53:00,49.8,35.6,30.20,ENE,73,0.0,0.0,57,0.00,,---,0.00,cosweather0.1e,2015-03-06 14:53:00,
2015-03-06 06:58:00,49.6,35.6,30.20,ENE,73,0.0,0.0,58,0.00,,---,0.00,cosweather0.1e,2015-03-06 14:58:00,
2015-03-06 07:03:00,49.8,35.6,30.20,ENE,73,0.0,0.0,58,0.00,,---,0.00,cosweather0.1e,2015-03-06 15:03:00,
2015-03-06 07:09:00,49.8,35.6,30.20,North,7,0.0,0.0,58,0.00,,---,0.00,cosweather0.1e,2015-03-06 15:09:00,
2015-03-06 07:14:00,50.0,35.6,30.24,North,7,0.0,0.0,58,0.00,,---,0.00,cosweather0.1e,2015-03-06 15:14:00,
2015-03-06 07:19:00,50.0,35.6,30.24,North,7,0.0,0.0,58,0.00,,---,0.00,cosweather0.1e,2015-03-06 15:19:00,
2015-03-06 07:24:00,50.0,35.6,30.24,North,7,0.0,0.0,58,0.00,,---,0.00,cosweather0.1e,2015-03-06 15:24:00,
2015-03-06 07:29:00,50.0,35.6,30.24,North,7,0.0,0.0,58,0.00,,---,0.00,cosweather0.1e,2015-03-06 15:29:00,
2015-03-06 07:34:00,50.0,35.6,30.24,North,7,0.0,0.0,59,0.00,,---,0.00,cosweather0.1e,2015-03-06 15:34:00,
2015-03-06 07:39:00,50.0,35.6,30.24,North,7,0.0,0.0,59,0.00,,---,0.00,cosweather0.1e,2015-03-06 15:39:00,
2015-03-06 07:44:00,50.2,37.4,30.24,North,7,0.0,0.0,60,0.00,,---,0.00,cosweather0.1e,2015-03-06 15:44:00,
2015-03-06 07:49:00,50.4,37.4,30.24,North,7,0.0,0.0,60,0.00,,---,0.00,cosweather0.1e,2015-03-06 15:49:00,
2015-03-06 07:54:00,50.7,37.4,30.24,North,7,0.0,0.0,60,0.00,,---,0.00,cosweather0.1e,2015-03-06 15:54:00,
2015-03-06 07:59:00,50.9,37.4,30.24,North,7,0.0,0.0,60,0.00,,---,0.00,cosweather0.1e,2015-03-06 15:59:00,
2015-03-06 08:04:00,51.1,37.4,30.24,North,7,0.0,0.0,60,0.00,,---,0.00,cosweather0.1e,2015-03-06 16:04:00,
2015-03-06 08:09:00,51.4,37.4,30.24,North,7,0.0,0.0,60,0.00,,---,0.00,cosweather0.1e,2015-03-06 16:09:00,
2015-03-06 08:14:00,51.6,39.2,30.24,North,7,0.0,0.0,61,0.00,,---,0.00,cosweather0.1e,2015-03-06 16:14:00,
2015-03-06 08:19:00,51.8,37.4,30.24,North,7,0.0,0.0,60,0.00,,---,0.00,cosweather0.1e,2015-03-06 16:19:00,
2015-03-06 08:24:00,52.2,37.4,30.24,North,7,0.0,0.0,60,0.00,,---,0.00,cosweather0.1e,2015-03-06 16:24:00,
2015-03-06 08:29:00,52.3,37.4,30.24,West,267,0.0,0.0,60,0.00,,---,0.00,cosweather0.1e,2015-03-06 16:29:00,
2015-03-06 08:34:00,52.5,37.4,30.24,SW,231,0.0,0.0,60,0.00,,---,0.00,cosweather0.1e,2015-03-06 16:34:00,
2015-03-06 08:39:00,52.9,39.2,30.24,SW,220,0.0,0.0,60,0.00,,---,0.00,cosweather0.1e,2015-03-06 16:39:00,
2015-03-06 08:44:00,53.1,39.2,30.24,SW,224,0.0,0.0,60,0.00,,---,0.00,cosweather0.1e,2015-03-06 16:44:00,
2015-03-06 08:49:00,53.2,39.2,30.24,SSW,210,0.0,0.0,59,0.00,,---,0.00,cosweather0.1e,2015-03-06 16:49:00,
2015-03-06 08:54:00,53.4,39.2,30.24,SSW,213,0.0,0.0,59,0.00,,---,0.00,cosweather0.1e,2015-03-06 16:54:00,
2015-03-06 08:59:00,53.8,39.2,30.24,South,183,0.0,0.0,58,0.00,,---,0.00,cosweather0.1e,2015-03-06 16:59:00,
2015-03-06 09:04:00,54.1,39.2,30.24,South,183,0.0,0.0,59,0.00,,---,0.00,cosweather0.1e,2015-03-06 17:04:00,
2015-03-06 09:09:00,54.3,39.2,30.24,South,183,0.0,0.0,59,0.00,,---,0.00,cosweather0.1e,2015-03-06 17:09:00,
2015-03-06 09:14:00,54.7,41.0,30.24,WSW,249,0.0,0.0,59,0.00,,---,0.00,cosweather0.1e,2015-03-06 17:14:00,
2015-03-06 09:19:00,55.0,41.0,30.24,WNW,298,0.0,0.0,58,0.00,,---,0.00,cosweather0.1e,2015-03-06 17:19:00,
2015-03-06 09:24:00,55.2,41.0,30.24,West,278,0.0,2.2,58,0.00,,---,0.00,cosweather0.1e,2015-03-06 17:24:00,
2015-03-06 09:29:00,55.6,39.2,30.24,NNE,18,0.0,0.0,56,0.00,,---,0.00,cosweather0.1e,2015-03-06 17:29:00,
2015-03-06 09:34:00,55.9,39.2,30.24,West,269,0.0,0.0,56,0.00,,---,0.00,cosweather0.1e,2015-03-06 17:34:00,
2015-03-06 09:39:00,56.1,39.2,30.24,NW,324,0.0,0.0,54,0.00,,---,0.00,cosweather0.1e,2015-03-06 17:39:00,
2015-03-06 09:44:00,56.3,41.0,30.20,West,272,0.0,0.0,54,0.00,,---,0.00,cosweather0.1e,2015-03-06 17:44:00,
2015-03-06 09:49:00,56.7,41.0,30.20,North,357,0.0,0.0,54,0.00,,---,0.00,cosweather0.1e,2015-03-06 17:49:00,
2015-03-06 09:54:00,57.0,39.2,30.20,NNE,31,0.0,2.7,50,0.00,,---,0.00,cosweather0.1e,2015-03-06 17:54:00,
2015-03-06 09:59:00,57.4,37.4,30.20,NW,311,0.0,2.7,48,0.00,,---,0.00,cosweather0.1e,2015-03-06 17:59:00,
2015-03-06 10:04:00,57.7,37.4,30.20,WNW,298,0.0,2.7,49,0.00,,---,0.00,cosweather0.1e,2015-03-06 18:04:00,
2015-03-06 10:09:00,58.1,39.2,30.20,WNW,284,0.0,3.1,48,0.00,,---,0.00,cosweather0.1e,2015-03-06 18:09:00,
2015-03-06 10:22:00,59.7,39.2,30.20,WNW,283,0.0,0.0,48,0.00,,---,0.00,cosweather0.1e,2015-03-06 18:22:00,
2015-03-06 10:27:00,60.4,39.2,30.20,South,176,0.0,0.0,46,0.00,,---,0.00,cosweather0.1e,2015-03-06 18:27:00,
2015-03-06 10:32:00,61.0,39.2,30.20,NNW,346,2.2,2.7,45,0.00,,---,0.00,cosweather0.1e,2015-03-06 18:32:00,
2015-03-06 10:38:00,61.7,41.0,30.20,WNW,288,2.2,2.2,44,0.00,,---,0.00,cosweather0.1e,2015-03-06 18:38:00,
2015-03-06 10:43:00,62.2,39.2,30.20,NNW,328,0.0,2.2,42,0.00,,---,0.00,cosweather0.1e,2015-03-06 18:43:00,
2015-03-06 10:48:00,62.6,39.2,30.20,WNW,301,2.2,0.0,41,0.00,,---,0.00,cosweather0.1e,2015-03-06 18:48:00,
2015-03-06 10:53:00,63.3,37.4,30.20,NNW,331,0.0,0.0,39,0.00,,---,0.00,cosweather0.1e,2015-03-06 18:53:00,
2015-03-06 10:58:00,63.7,37.4,30.20,NW,320,0.0,3.1,37,0.00,,---,0.00,cosweather0.1e,2015-03-06 18:58:00,
2015-03-06 11:03:00,64.0,37.4,30.20,NNW,329,0.0,2.2,37,0.00,,---,0.00,cosweather0.1e,2015-03-06 19:03:00,
2015-03-06 11:08:00,64.2,37.4,30.20,WSW,251,2.7,2.7,36,0.00,,---,0.00,cosweather0.1e,2015-03-06 19:08:00,
2015-03-06 11:13:00,65.5,39.2,30.20,NW,317,0.0,3.6,36,0.00,,---,0.00,cosweather0.1e,2015-03-06 19:13:00,
2015-03-06 11:18:00,65.7,37.4,30.20,North,0,2.2,0.0,34,0.00,,---,0.00,cosweather0.1e,2015-03-06 19:18:00,
2015-03-06 11:23:00,66.0,37.4,30.20,WSW,247,0.0,0.0,35,0.00,,---,0.00,cosweather0.1e,2015-03-06 19:23:00,
2015-03-06 11:28:00,67.5,41.0,30.16,WNW,298,0.0,2.7,36,0.00,,---,0.00,cosweather0.1e,2015-03-06 19:28:00,
2015-03-06 11:33:00,68.5,39.2,30.16,SSW,212,0.0,0.0,35,0.00,,---,0.00,cosweather0.1e,2015-03-06 19:33:00,
2015-03-06 11:38:00,69.3,41.0,30.16,West,262,2.2,0.0,34,0.00,,---,0.00,cosweather0.1e,2015-03-06 19:38:00,
2015-03-06 11:43:00,69.8,39.2,30.16,South,187,0.0,2.7,32,0.00,,---,0.00,cosweather0.1e,2015-03-06 19:43:00,
2015-03-06 11:53:00,70.9,41.0,30.16,West,260,2.2,0.0,32,0.00,,---,0.00,cosweather0.1e,2015-03-06 19:53:00,
2015-03-06 11:58:00,71.6,39.2,30.16,North,1,0.0,2.7,31,0.00,,---,0.00,cosweather0.1e,2015-03-06 19:58:00,
2015-03-06 12:03:00,72.1,39.2,30.16,NW,312,0.0,2.7,31,0.00,,---,0.00,cosweather0.1e,2015-03-06 20:03:00,
2015-03-06 12:08:00,71.8,37.4,30.16,North,353,0.0,2.2,28,0.00,,---,0.00,cosweather0.1e,2015-03-06 20:08:00,
2015-03-06 12:13:00,71.6,39.2,30.16,West,262,0.0,0.0,30,0.00,,---,0.00,cosweather0.1e,2015-03-06 20:13:00,
2015-03-06 12:18:00,72.9,41.0,30.16,West,271,0.0,2.7,30,0.00,,---,0.00,cosweather0.1e,2015-03-06 20:18:00,
2015-03-06 12:23:00,73.6,39.2,30.16,WNW,302,0.0,0.0,28,0.00,,---,0.00,cosweather0.1e,2015-03-06 20:23:00,
2015-03-06 12:28:00,73.8,37.4,30.12,NW,313,0.0,2.7,26,0.00,,---,0.00,cosweather0.1e,2015-03-06 20:28:00,
2015-03-06 12:33:00,73.6,37.4,30.12,NW,322,0.0,2.2,26,0.00,,---,0.00,cosweather0.1e,2015-03-06 20:33:00,
2015-03-06 12:38:00,73.9,35.6,30.12,SSW,206,0.0,0.0,25,0.00,,---,0.00,cosweather0.1e,2015-03-06 20:38:00,
2015-03-06 12:43:00,74.7,37.4,30.12,West,270,2.7,3.1,26,0.00,,---,0.00,cosweather0.1e,2015-03-06 20:43:00,
2015-03-06 12:48:00,75.4,37.4,30.12,SSW,198,2.7,2.7,25,0.00,,---,0.00,cosweather0.1e,2015-03-06 20:48:00,
2015-03-06 12:53:00,75.6,35.6,30.12,WNW,300,0.0,3.1,24,0.00,,---,0.00,cosweather0.1e,2015-03-06 20:53:00,
2015-03-06 12:58:00,75.7,35.6,30.12,South,171,0.0,0.0,24,0.00,,---,0.00,cosweather0.1e,2015-03-06 20:58:00,
2015-03-06 13:03:00,75.6,35.6,30.12,South,179,2.2,0.0,23,0.00,,---,0.00,cosweather0.1e,2015-03-06 21:03:00,
2015-03-06 13:08:00,75.6,35.6,30.12,NNW,335,2.2,2.2,23,0.00,,---,0.00,cosweather0.1e,2015-03-06 21:08:00,
2015-03-06 13:13:00,75.9,35.6,30.12,NW,317,0.0,2.7,24,0.00,,---,0.00,cosweather0.1e,2015-03-06 21:13:00,
2015-03-06 13:18:00,76.5,39.2,30.12,WNW,287,3.1,3.1,25,0.00,,---,0.00,cosweather0.1e,2015-03-06 21:18:00,
2015-03-06 13:23:00,76.6,39.2,30.12,WSW,250,0.0,2.2,25,0.00,,---,0.00,cosweather0.1e,2015-03-06 21:23:00,
2015-03-06 13:28:00,76.6,39.2,30.08,NNW,336,0.0,2.7,25,0.00,,---,0.00,cosweather0.1e,2015-03-06 21:28:00,
2015-03-06 13:38:00,77.0,37.4,30.08,West,265,0.0,0.0,24,0.00,,---,0.00,cosweather0.1e,2015-03-06 21:38:00,
2015-03-06 13:43:00,77.4,37.4,30.08,WNW,285,0.0,2.7,24,0.00,,---,0.00,cosweather0.1e,2015-03-06 21:43:00,
2015-03-06 13:48:00,77.9,39.2,30.08,NW,305,2.2,4.0,25,0.00,,---,0.00,cosweather0.1e,2015-03-06 21:48:00,
2015-03-06 13:53:00,78.3,39.2,30.08,West,263,0.0,3.1,25,0.00,,---,0.00,cosweather0.1e,2015-03-06 21:53:00,
2015-03-06 13:58:00,78.1,39.2,30.08,NW,326,0.0,2.2,25,0.00,,---,0.00,cosweather0.1e,2015-03-06 21:58:00,
2015-03-06 14:04:00,78.1,39.2,30.08,North,5,2.2,3.1,24,0.00,,---,0.00,cosweather0.1e,2015-03-06 22:04:00,
2015-03-06 14:09:00,77.5,37.4,30.08,NNW,341,2.2,2.2,24,0.00,,---,0.00,cosweather0.1e,2015-03-06 22:09:00,
2015-03-06 14:14:00,77.4,39.2,30.08,SW,227,2.2,2.7,25,0.00,,---,0.00,cosweather0.1e,2015-03-06 22:14:00,
2015-03-06 14:19:00,77.4,39.2,30.08,NW,321,0.0,2.2,25,0.00,,---,0.00,cosweather0.1e,2015-03-06 22:19:00,
2015-03-06 14:24:00,77.7,39.2,30.08,SW,233,0.0,0.0,25,0.00,,---,0.00,cosweather0.1e,2015-03-06 22:24:00,
2015-03-06 14:29:00,77.5,37.4,30.04,WSW,256,2.2,2.7,24,0.00,,---,0.00,cosweather0.1e,2015-03-06 22:29:00,
2015-03-06 14:34:00,77.4,39.2,30.04,South,180,2.2,2.2,25,0.00,,---,0.00,cosweather0.1e,2015-03-06 22:34:00,
2015-03-06 14:39:00,77.2,39.2,30.04,NW,324,0.0,3.1,25,0.00,,---,0.00,cosweather0.1e,2015-03-06 22:39:00,
2015-03-06 14:44:00,76.5,37.4,30.04,WNW,299,2.7,4.0,24,0.00,,---,0.00,cosweather0.1e,2015-03-06 22:44:00,
2015-03-06 14:49:00,76.3,39.2,30.04,NW,312,0.0,2.7,25,0.00,,---,0.00,cosweather0.1e,2015-03-06 22:49:00,
2015-03-06 14:54:00,75.9,37.4,30.04,NNW,336,0.0,0.0,25,0.00,,---,0.00,cosweather0.1e,2015-03-06 22:54:00,
2015-03-06 14:59:00,76.1,39.2,30.04,SSW,197,0.0,0.0,25,0.00,,---,0.00,cosweather0.1e,2015-03-06 22:59:00,
2015-03-06 15:04:00,75.9,35.6,30.04,NW,325,3.1,3.1,24,0.00,,---,0.00,cosweather0.1e,2015-03-06 23:04:00,
2015-03-06 15:09:00,75.6,35.6,30.04,WNW,293,2.7,2.7,24,0.00,,---,0.00,cosweather0.1e,2015-03-06 23:09:00,
2015-03-06 15:14:00,75.7,35.6,30.04,WNW,288,2.2,3.1,24,0.00,,---,0.00,cosweather0.1e,2015-03-06 23:14:00,
2015-03-06 15:19:00,76.1,39.2,30.04,WNW,295,0.0,3.1,25,0.00,,---,0.00,cosweather0.1e,2015-03-06 23:19:00,
2015-03-06 15:24:00,76.3,37.4,30.04,North,6,0.0,3.6,24,0.00,,---,0.00,cosweather0.1e,2015-03-06 23:24:00,
2015-03-06 15:29:00,75.7,35.6,30.04,West,274,0.0,2.7,24,0.00,,---,0.00,cosweather0.1e,2015-03-06 23:29:00,
2015-03-06 15:34:00,75.7,35.6,30.04,NNW,330,2.7,3.1,24,0.00,,---,0.00,cosweather0.1e,2015-03-06 23:34:00,
2015-03-06 15:39:00,75.0,35.6,30.04,WNW,297,2.2,2.2,24,0.00,,---,0.00,cosweather0.1e,2015-03-06 23:39:00,
2015-03-06 15:45:00,74.8,35.6,30.04,WNW,295,0.0,0.0,24,0.00,,---,0.00,cosweather0.1e,2015-03-06 23:45:00,
2015-03-06 15:49:00,74.8,35.6,30.04,NW,315,0.0,2.2,24,0.00,,---,0.00,cosweather0.1e,2015-03-06 23:49:00,
2015-03-06 15:54:00,75.0,35.6,30.04,NW,320,2.7,3.1,24,0.00,,---,0.00,cosweather0.1e,2015-03-06 23:54:00,
2015-03-06 16:00:00,74.7,35.6,30.04,NNW,348,2.2,2.7,23,0.00,,---,0.00,cosweather0.1e,2015-03-07 00:00:00,
2015-03-06 16:05:00,74.7,35.6,30.04,NW,305,2.2,2.2,24,0.00,,---,0.00,cosweather0.1e,2015-03-07 00:05:00,
2015-03-06 16:10:00,74.8,35.6,30.04,NE,46,0.0,2.2,23,0.00,,---,0.00,cosweather0.1e,2015-03-07 00:10:00,
2015-03-06 16:15:00,74.5,35.6,30.04,NNW,328,2.7,2.7,23,0.00,,---,0.00,cosweather0.1e,2015-03-07 00:15:00,
2015-03-06 16:20:00,74.5,35.6,30.04,WNW,299,2.2,2.7,23,0.00,,---,0.00,cosweather0.1e,2015-03-07 00:20:00,
2015-03-06 16:25:00,74.5,35.6,30.04,WNW,303,0.0,3.1,23,0.00,,---,0.00,cosweather0.1e,2015-03-07 00:25:00,
2015-03-06 16:30:00,74.3,35.6,30.00,NW,325,2.2,3.6,23,0.00,,---,0.00,cosweather0.1e,2015-03-07 00:30:00,
2015-03-06 16:35:00,73.9,33.8,30.00,NW,310,3.1,3.1,23,0.00,,---,0.00,cosweather0.1e,2015-03-07 00:35:00,
2015-03-06 16:40:00,73.8,33.8,30.00,North,6,2.2,0.0,23,0.00,,---,0.00,cosweather0.1e,2015-03-07 00:40:00,
2015-03-06 16:45:00,73.4,33.8,30.00,NW,320,0.0,2.2,23,0.00,,---,0.00,cosweather0.1e,2015-03-07 00:45:00,
2015-03-06 16:50:00,73.2,33.8,30.00,NNW,345,2.2,3.6,23,0.00,,---,0.00,cosweather0.1e,2015-03-07 00:50:00,
2015-03-06 16:55:00,72.5,33.8,30.00,NW,313,0.0,2.7,24,0.00,,---,0.00,cosweather0.1e,2015-03-07 00:55:00,
2015-03-06 17:00:00,72.5,33.8,30.00,NW,320,2.2,2.2,24,0.00,,---,0.00,cosweather0.1e,2015-03-07 01:00:00,
2015-03-06 17:05:00,72.3,33.8,30.00,NW,318,0.0,2.7,24,0.00,,---,0.00,cosweather0.1e,2015-03-07 01:05:00,
2015-03-06 17:10:00,72.3,33.8,30.00,WNW,287,2.7,3.1,24,0.00,,---,0.00,cosweather0.1e,2015-03-07 01:10:00,
2015-03-06 17:15:00,72.1,33.8,30.00,WNW,300,0.0,0.0,24,0.00,,---,0.00,cosweather0.1e,2015-03-07 01:15:00,
2015-03-06 17:20:00,71.8,33.8,30.00,WNW,285,0.0,0.0,25,0.00,,---,0.00,cosweather0.1e,2015-03-07 01:20:00,
2015-03-06 17:25:00,71.6,35.6,30.00,NNW,338,2.2,2.2,26,0.00,,---,0.00,cosweather0.1e,2015-03-07 01:25:00,
2015-03-06 17:30:00,71.2,35.6,30.00,NW,311,0.0,2.2,27,0.00,,---,0.00,cosweather0.1e,2015-03-07 01:30:00,
2015-03-06 17:35:00,71.1,35.6,30.00,NNW,340,0.0,3.1,27,0.00,,---,0.00,cosweather0.1e,2015-03-07 01:35:00,
2015-03-06 17:40:00,70.9,35.6,30.00,NW,314,0.0,0.0,26,0.00,,---,0.00,cosweather0.1e,2015-03-07 01:40:00,
2015-03-06 17:45:00,70.9,35.6,30.00,NNE,26,0.0,2.7,27,0.00,,---,0.00,cosweather0.1e,2015-03-07 01:45:00,
2015-03-06 17:50:00,70.5,33.8,30.00,North,357,0.0,0.0,27,0.00,,---,0.00,cosweather0.1e,2015-03-07 01:50:00,
2015-03-06 17:55:00,70.0,33.8,30.00,NE,40,0.0,0.0,27,0.00,,---,0.00,cosweather0.1e,2015-03-07 01:55:00,
2015-03-06 18:00:00,69.6,35.6,30.00,NNE,24,0.0,0.0,28,0.00,,---,0.00,cosweather0.1e,2015-03-07 02:00:00,
2015-03-06 18:05:00,69.3,35.6,30.00,North,357,0.0,2.2,29,0.00,,---,0.00,cosweather0.1e,2015-03-07 02:05:00,
2015-03-06 18:10:00,68.9,37.4,30.00,NNE,28,0.0,0.0,30,0.00,,---,0.00,cosweather0.1e,2015-03-07 02:10:00,
2015-03-06 18:15:00,68.4,37.4,30.00,NE,36,0.0,0.0,32,0.00,,---,0.00,cosweather0.1e,2015-03-07 02:15:00,
2015-03-06 18:20:00,67.6,37.4,30.00,NNE,16,0.0,0.0,33,0.00,,---,0.00,cosweather0.1e,2015-03-07 02:20:00,
2015-03-06 18:25:00,67.1,37.4,30.00,NNE,31,0.0,2.2,33,0.00,,---,0.00,cosweather0.1e,2015-03-07 02:25:00,
2015-03-06 18:30:00,66.6,37.4,30.00,NNE,24,2.2,2.7,34,0.00,,---,0.00,cosweather0.1e,2015-03-07 02:30:00,
2015-03-06 18:35:00,66.0,37.4,30.00,NNE,32,2.2,2.7,35,0.00,,---,0.00,cosweather0.1e,2015-03-07 02:35:00,
2015-03-06 18:40:00,65.5,37.4,30.00,NNE,17,2.2,2.2,35,0.00,,---,0.00,cosweather0.1e,2015-03-07 02:40:00,
2015-03-06 18:45:00,65.1,35.6,30.04,NE,42,2.2,2.2,35,0.00,,---,0.00,cosweather0.1e,2015-03-07 02:45:00,
2015-03-06 18:50:00,64.8,37.4,30.04,NE,35,2.2,2.2,36,0.00,,---,0.00,cosweather0.1e,2015-03-07 02:50:00,
2015-03-06 18:55:00,64.2,37.4,30.04,North,357,2.2,0.0,37,0.00,,---,0.00,cosweather0.1e,2015-03-07 02:55:00,
2015-03-06 19:00:00,64.2,37.4,30.04,NNE,16,0.0,0.0,37,0.00,,---,0.00,cosweather0.1e,2015-03-07 03:00:00,
2015-03-06 19:05:00,64.4,37.4,30.04,North,357,0.0,0.0,36,0.00,,---,0.00,cosweather0.1e,2015-03-07 03:05:00,
2015-03-06 19:10:00,64.4,37.4,30.04,NE,41,0.0,2.2,36,0.00,,---,0.00,cosweather0.1e,2015-03-07 03:10:00,
2015-03-06 19:15:00,64.0,37.4,30.04,NNE,24,0.0,0.0,36,0.00,,---,0.00,cosweather0.1e,2015-03-07 03:15:00,
2015-03-06 19:20:00,63.7,37.4,30.04,NNE,24,0.0,2.2,36,0.00,,---,0.00,cosweather0.1e,2015-03-07 03:20:00,
2015-03-06 19:25:00,63.1,35.6,30.04,NNE,12,2.2,2.7,37,0.00,,---,0.00,cosweather0.1e,2015-03-07 03:25:00,
2015-03-06 19:30:00,62.8,37.4,30.04,NNE,25,2.2,2.7,38,0.00,,---,0.00,cosweather0.1e,2015-03-07 03:30:00,
2015-03-06 19:35:00,62.2,37.4,30.04,NE,38,2.2,3.1,39,0.00,,---,0.00,cosweather0.1e,2015-03-07 03:35:00,
2015-03-06 19:40:00,61.9,37.4,30.04,NNE,28,0.0,2.7,39,0.00,,---,0.00,cosweather0.1e,2015-03-07 03:40:00,
2015-03-06 19:45:00,61.9,37.4,30.04,NNE,12,0.0,2.2,39,0.00,,---,0.00,cosweather0.1e,2015-03-07 03:45:00,
2015-03-06 19:50:00,61.7,37.4,30.04,North,350,0.0,2.2,40,0.00,,---,0.00,cosweather0.1e,2015-03-07 03:50:00,
2015-03-06 19:55:00,61.3,35.6,30.04,NNE,13,0.0,0.0,40,0.00,,---,0.00,cosweather0.1e,2015-03-07 03:55:00,
2015-03-06 20:00:00,61.0,35.6,30.04,NNW,348,0.0,2.7,40,0.00,,---,0.00,cosweather0.1e,2015-03-07 04:00:00,
2015-03-06 20:05:00,61.2,35.6,30.04,NNW,334,0.0,0.0,40,0.00,,---,0.00,cosweather0.1e,2015-03-07 04:05:00,
2015-03-06 20:10:00,61.2,35.6,30.04,NE,37,0.0,0.0,40,0.00,,---,0.00,cosweather0.1e,2015-03-07 04:10:00,
2015-03-06 20:15:00,61.5,35.6,30.04,East,94,0.0,0.0,40,0.00,,---,0.00,cosweather0.1e,2015-03-07 04:15:00,
2015-03-06 20:20:00,61.7,37.4,30.04,East,93,0.0,0.0,40,0.00,,---,0.00,cosweather0.1e,2015-03-07 04:20:00,
2015-03-06 20:25:00,61.7,37.4,30.04,East,93,0.0,0.0,40,0.00,,---,0.00,cosweather0.1e,2015-03-07 04:25:00,
2015-03-06 20:30:00,61.9,37.4,30.04,East,94,0.0,0.0,40,0.00,,---,0.00,cosweather0.1e,2015-03-07 04:30:00,
2015-03-06 20:35:00,61.9,37.4,30.04,East,94,0.0,0.0,39,0.00,,---,0.00,cosweather0.1e,2015-03-07 04:35:00,